Find Starlink 2034

NORAD ID: 47352 Int'l Des: 2021-005 Owner: SPXS Country: US Constellation: starlink operational
LEOCIRCULAR

Current View

Loading 3D Globe...

About Starlink 2034

Starlink 2034 (NORAD 47352) is a starlink constellation satellite (v1.0) launched Jan 20, 2021 by SPXS of US. It operates in LEO, CIRCULAR orbit with a mass of 260.00 kg.

About Starlink 2034

Description loading...

Upcoming Passes

Passes for default location (London). Set your location on the main map for personalized predictions.

Altitude History

Loading altitude history...

Two-Line Element Set

1 47352U 21005D 26168.10145858 -.00000002 00000-0 11709-4 0 9999
2 47352 53.1614 310.2538 0001328 74.6989 285.4159 15.31701640298407
Epoch: Jun 17, 2026 • Age: 13 hours

Current Status

Altitude 471.4 km
Velocity 7.63 km/s
Sub-Earth Point 27.67°N, 161.84°W
Launch Date Jan 20, 2021
Age 5.4 years
Type internet

Technical Details

Classification Payload
Mass 260.00 kg
Dry Mass 248.00 kg
Total Mass 260.00 kg
Length 0.20 m
Diameter 2.80 m
Span 9.00 m
Shape Box + pan
Manufacturer SPXS
Bus Type Starlink
Phase Status In Orbit
Owner/State SPXS/US

Most Searched